Weather History for Columbus, OH

Change the Weather History Date:

Sunday, April 7, 2013

  Actual Average Record
Temperature  
Mean Temperature 64 °F 50 °F  
Max Temperature 74 °F 60 °F 85 °F (1893)
Min Temperature 53 °F 40 °F 14 °F (1982)
Degree Days  
Heating Degree Days 1 15  
Month to date heating degree days 147 114  
Since 1 July heating degree days 4856 4825  
Cooling Degree Days 0 0  
Month to date cooling degree days 0 0  
Year to date cooling degree days 0 0  
Growing Degree Days 13 (Base 50)    
Moisture  
Dew Point 36 °F    
Average Humidity 37    
Maximum Humidity 47    
Minimum Humidity 26    
Precipitation  
Precipitation T in 0.11 in 2.26 in (1895)
Month to date precipitation T 0.78  
Year to date precipitation 7.19 8.78  
Snow  
Snow 0.00 in 0.10 in 1.20 in (1886)
Month to date snowfall T 0.5  
Since 1 July snowfall 41.2 26.1  
Snow Depth 0.00 in    
Sea Level Pressure  
Sea Level Pressure 29.91 in    
Wind  
Wind Speed 14 mph (SW)    
Max Wind Speed 26 mph    
Max Gust Speed 33 mph    
Visibility 10 miles    
Events      
T = Trace of Precipitation, MM = Missing Value Source: NWS Daily Summary

Daily Weather History Graph

Daily Weather History Graph

Search for Another Location

Airport:

Trip Planner

Search our weather history database for the weather conditions in past years. The results will help you decide how hot, cold, wet, or windy it might be!

Date:

Astronomy

Apr. 07, 2013 Rise Set
Actual Time 7:05 AM EDT 8:02 PM EDT
Civil Twilight 6:38 AM EDT 8:29 PM EDT
Nautical Twilight 6:05 AM EDT 9:02 PM EDT
Astronomical Twilight 5:31 AM EDT 9:36 PM EDT
Moon 5:22 AM EDT (4/7) 5:33 PM EDT (4/7)
Length of Visible Light 13h 51m
Length of Day
12h 56m
Waning Crescent, 8% of the Moon is Illuminated
Apr 7
Waning Crescent
Apr 10
New
Apr 18
First Quarter
Apr 25
Full
May 2
Last Quarter

Hourly Weather History & Observations

Time (EDT) Temp. Dew Point Humidity Pressure Visibility Wind Dir Wind Speed Gust Speed Precip Events Conditions
12:51 AM 54.0 °F 19.9 °F 26% 29.93 in 10.0 mi SSE 6.9 mph - N/A   Mostly Cloudy
1:51 AM 55.9 °F 23.0 °F 28% 29.90 in 10.0 mi South 10.4 mph - N/A   Clear
2:51 AM 59.0 °F 28.0 °F 31% 29.89 in 10.0 mi South 13.8 mph - N/A   Scattered Clouds
3:51 AM 60.1 °F 30.9 °F 33% 29.87 in 10.0 mi South 16.1 mph - N/A   Scattered Clouds
4:51 AM 57.9 °F 34.0 °F 41% 29.86 in 10.0 mi South 12.7 mph - N/A   Partly Cloudy
5:51 AM 59.0 °F 36.0 °F 42% 29.86 in 10.0 mi SSW 16.1 mph - N/A   Partly Cloudy
6:51 AM 60.1 °F 37.0 °F 42% 29.86 in 10.0 mi SSW 17.3 mph 28.8 mph N/A   Mostly Cloudy
7:51 AM 60.8 °F 37.4 °F 42% 29.88 in 10.0 mi SW 17.3 mph 27.6 mph N/A   Mostly Cloudy
8:51 AM 61.0 °F 37.9 °F 42% 29.89 in 10.0 mi SW 21.9 mph 31.1 mph N/A   Overcast
9:51 AM 60.8 °F 39.2 °F 45% 29.90 in 10.0 mi SW 17.3 mph 24.2 mph N/A   Overcast
10:51 AM 63.0 °F 39.9 °F 43% 29.91 in 10.0 mi SW 18.4 mph - N/A   Overcast
11:51 AM 66.0 °F 41.0 °F 40% 29.91 in 10.0 mi WSW 19.6 mph 29.9 mph N/A   Overcast
12:51 PM 70.0 °F 43.0 °F 38% 29.90 in 10.0 mi SW 23.0 mph 31.1 mph N/A   Mostly Cloudy
1:51 PM 73.0 °F 43.0 °F 34% 29.90 in 10.0 mi SW 21.9 mph 27.6 mph N/A   Scattered Clouds
2:51 PM 73.0 °F 42.1 °F 33% 29.90 in 10.0 mi SW 21.9 mph 28.8 mph N/A   Scattered Clouds
3:51 PM 73.0 °F 42.1 °F 33% 29.89 in 10.0 mi WSW 15.0 mph 29.9 mph N/A   Mostly Cloudy
4:51 PM 73.0 °F 39.9 °F 30% 29.91 in 10.0 mi WSW 19.6 mph 26.5 mph N/A   Overcast
5:51 PM 72.0 °F 39.0 °F 30% 29.92 in 10.0 mi WSW 17.3 mph - N/A   Mostly Cloudy
6:51 PM 71.1 °F 39.9 °F 32% 29.93 in 10.0 mi West 16.1 mph - N/A   Mostly Cloudy
7:51 PM 69.1 °F 36.0 °F 30% 29.94 in 10.0 mi WNW 8.1 mph - N/A   Mostly Cloudy
8:51 PM 66.9 °F 35.1 °F 31% 29.95 in 10.0 mi WNW 3.5 mph - N/A   Mostly Cloudy
9:51 PM 63.0 °F 36.0 °F 37% 29.98 in 10.0 mi Calm Calm - N/A   Mostly Cloudy
10:51 PM 57.9 °F 37.0 °F 46% 29.99 in 10.0 mi Calm Calm - N/A   Mostly Cloudy
11:51 PM 59.0 °F 37.9 °F 46% 29.99 in 10.0 mi Calm Calm - N/A   Overcast